Showing default

ORBCOMM FM 23, 25477

Orbit data source: Space-Track

ORBCOMM FM 23, 25477 is a payload satellite owned by Orbcomm (US) in LEO that was launched on Wed, 23 Sep 1998 UTC via a PEGASUS XL/HAPS launch vehicle from the Pegasus Launch, Eastern Range Air Space (ERAS). Payload-class satellites include a variety of spacecraft equipped with specific instruments for various scientific and technological missions. These include communications satellites like Starlink; space stations such as the ISS; scientific satellites like the Hubble; Earth observation satellites from companies like Planet Labs, Umbra, and HawkEye 360; GPS; miniature CubeSats for education and research; and military/defense satellites.

Loading next visibility...
Identifier
25477, 1998-053C
Orbit
LEO
Country
Flag of USUS / ORB
Related business
Manufacturer
OSC-Germantown
Mission
Non-operational Commercial Communications
Bus & Motor
MICROSTAR, Unknown motor
Mass
42 kg wet, 42 kg dry
Launch date (UTC)
1998-09-23 (27 years ago)
Launch vehicle
PEGASUS XL/HAPS
Launch site
Pegasus Launch, Eastern Range Air Space (ERAS)
Object type
Payload
Rocket body
Debris
Shape & HBR
Cyl + 2 Pan, 4.2 m
Radar Cross Section
1.484 m², Medium (>0.1 m² and < 1m²)

Expand to show TLE details & history
Last TLE update: 13 hours ago

TLE from 13 hours ago
0 ORBCOMM FM 23
1 25477U 98053C   25346.73931182  .00001588  00000-0  56639-3 0  9998
2 25477  45.0065 145.5168 0002091  59.1666 300.9388 14.38032009423091
Epoch: 2025-12-12T17:44Z
TLE epoch observation values (Epoch: 2025-12-12T17:44:36.541Z)
Latitude
Longitude
157.68794°
Altitude
764.24 km
Speed
7.474 km/s
True Right ascension
09h 42m 04s
True Declination
0° 00' 00"
Sunlit
Object was in daylight at epoch
Visualization orbit readout
Latitude
Unknown
Longitude
Unknown
Altitude
Unknown
Speed
Unknown
Apparent Right ascension
Unknown
Apparent Declination
Unknown
Sunlit
N/A
Visualization observer readout
Local Sidereal Time
05:22:57
Azimuth
Unknown
Elevation
Unknown
Doppler factor
Unknown
Orbital elements
Apogee altitude
768.047 km
Perigee altitude
765.059 km
Semi-major axis
7,144.69 km
Eccentricity
0.00021
Inclination
45.0065°
RAAN
145.5168°
Arg. of periapsis
59.1666°
True anomaly
300.91825°
Mean anomaly
300.9388°
Eccentric anomaly
300.92852°
Mean motion
3.59392 °/min
Orbital period
100.17 mins
BSTAR
0.00056639
Loading maneuver chart data...
Computing Atmospheric mass density...
Loading historical data...
Loading historical data...
Loading historical data...
Loading historical data...
Loading historical data...
Loading historical data...
Loading historical data...

Documentation

Showing up to 5 results
|